DW8305 Weather Reports


Display with metric or nautical units.
time (UTC)temp
F
wind
direction
speed
MPH
gust
MPH
rain 1hr
in
rain 24hr
in
rain mn
in
humidity
%
barometer
mb
20240302155117 58 135 6.0 8.0 0.00 0.00 0.00 58 1004.9
20240302154117 59 135 5.0 10.0 0.00 0.00 0.00 59 1004.9
20240302153117 59 135 4.0 8.0 0.00 0.00 0.00 58 1004.9
20240302152137 59 135 5.0 9.0 0.00 0.00 0.00 58 1005.0
20240302151117 59 158 4.0 7.0 0.00 0.00 0.00 58 1005.0
20240302150117 59 158 4.0 7.0 0.00 0.00 0.00 58 1005.0
20240302145117 58 225 5.0 9.0 0.00 0.00 0.00 60 1005.1
20240302144117 59 135 3.0 5.0 0.00 0.00 0.00 60 1005.1
20240302143117 59 135 5.0 10.0 0.00 0.00 0.00 59 1005.2
20240302142117 59 135 3.0 4.0 0.00 0.00 0.00 62 1005.2
20240302141117 59 135 6.0 8.0 0.00 0.00 0.00 61 1005.2
20240302140117 59 135 5.0 9.0 0.00 0.00 0.00 61 1005.2
20240302135137 59 203 6.0 11.0 0.00 0.00 0.00 59 1005.2
20240302134117 59 180 6.0 13.0 0.00 0.00 0.00 58 1005.3
20240302133117 59 158 5.0 11.0 0.00 0.00 0.00 60 1005.5
20240302132117 58 135 5.0 7.0 0.00 0.00 0.00 61 1005.6
20240302131117 58 158 3.0 4.0 0.00 0.00 0.00 63 1005.5
20240302130117 57 203 3.0 8.0 0.00 0.00 0.00 64 1005.5
20240302125117 57 203 5.0 9.0 0.00 0.00 0.00 63 1005.6
20240302124117 56 158 4.0 6.0 0.00 0.00 0.00 65 1005.7
20240302123137 56 203 4.0 6.0 0.00 0.00 0.00 64 1005.8
20240302122117 56 225 4.0 9.0 0.00 0.00 0.00 65 1005.8
20240302121117 55 158 6.0 9.0 0.00 0.00 0.00 66 1005.8
20240302120117 55 113 4.0 6.0 0.00 0.00 0.00 67 1005.9
20240302115117 55 135 4.0 7.0 0.00 0.00 0.00 66 1006.0
20240302114117 55 90 3.0 7.0 0.00 0.00 0.00 67 1005.9
20240302113137 55 225 4.0 7.0 0.00 0.00 0.00 67 1005.9
20240302112117 55 158 3.0 10.0 0.00 0.00 0.00 69 1005.9
20240302111117 54 158 3.0 6.0 0.00 0.00 0.00 70 1006.1
20240302110117 54 158 2.0 4.0 0.00 0.00 0.00 71 1006.2
20240302105137 53 113 4.0 7.0 0.00 0.00 0.00 71 1006.2
20240302104117 53 158 2.0 4.0 0.00 0.00 0.00 72 1006.2
20240302103117 52 90 2.0 4.0 0.00 0.00 0.00 72 1006.2
20240302102117 52 203 3.0 6.0 0.00 0.00 0.00 72 1006.2
20240302101117 52 225 4.0 9.0 0.00 0.00 0.00 73 1006.2
20240302100117 52 203 4.0 7.0 0.00 0.00 0.00 73 1006.1
20240302095117 52 180 4.0 8.0 0.00 0.00 0.00 73 1006.0
20240302094117 52 203 3.0 5.0 0.00 0.00 0.00 73 1005.9
20240302093117 52 203 4.0 7.0 0.00 0.00 0.00 74 1006.0
20240302092117 52 225 4.0 7.0 0.00 0.00 0.00 76 1005.9
20240302091137 51 135 2.0 4.0 0.00 0.00 0.00 78 1005.8
20240302090117 51 203 2.0 4.0 0.00 0.00 0.00 80 1005.9
20240302085117 50 225 3.0 5.0 0.00 0.00 0.00 81 1006.0
20240302084117 50 203 3.0 5.0 0.00 0.00 0.00 82 1006.0
20240302083117 49 135 1.0 2.0 0.00 0.00 0.00 84 1005.9
20240302082117 48 158 3.0 4.0 0.00 0.00 0.00 85 1005.9
20240302081137 48 135 1.0 2.0 0.00 0.00 0.00 86 1005.8
20240302080117 47 0.0 1.0 0.00 0.00 0.00 88 1005.8
20240302075117 46 135 2.0 2.0 0.00 0.00 0.00 88 1005.7
20240302074117 46 135 1.0 2.0 0.00 0.00 0.00 89 1005.6
20240302073117 44 135 1.0 2.0 0.00 0.00 0.00 91 1005.6
20240302072117 44 0.0 1.0 0.00 0.00 0.00 92 1005.6
20240302071117 43 0.0 0.0 0.00 0.00 0.00 92 1005.5
20240302070117 43 0.0 1.0 0.00 0.00 0.00 92 1005.4
20240302065137 42 0.0 1.0 0.00 0.00 0.00 92 1005.2
20240302064137 42 135 1.0 3.0 0.00 0.00 0.00 92 1005.1
20240302063117 42 135 2.0 3.0 0.00 0.00 0.00 91 1005.0
20240302062117 43 135 2.0 3.0 0.00 0.00 0.00 91 1004.9
20240302061117 43 0.0 1.0 0.00 0.00 0.00 90 1005.0
20240302060117 43 135 1.0 4.0 0.00 0.00 0.00 89 1005.0
20240302055117 44 135 2.0 3.0 0.00 0.00 0.00 89 1004.8
20240302054117 44 135 1.0 1.0 0.00 0.00 0.00 89 1004.8
20240302053117 44 135 4.0 6.0 0.00 0.00 0.00 90 1004.8
20240302052117 43 135 4.0 7.0 0.00 0.00 0.00 90 1004.8
20240302051117 43 0.0 0.0 0.00 0.00 0.00 89 1004.9
20240302050137 44 0.0 1.0 0.00 0.00 0.00 90 1004.9
20240302045117 44 0.0 0.0 0.00 0.00 0.00 90 1005.0
20240302044117 44 0.0 0.0 0.00 0.00 0.00 89 1004.7
20240302043117 44 135 4.0 6.0 0.00 0.00 0.00 89 1004.6
20240302042117 45 135 5.0 5.0 0.00 0.00 0.00 88 1004.6
20240302041117 45 135 5.0 6.0 0.00 0.00 0.00 88 1004.7
20240302040117 45 135 3.0 6.0 0.00 0.00 0.00 88 1004.7
20240302035117 45 135 4.0 6.0 0.00 0.00 0.00 88 1004.7
20240302034117 45 135 2.0 3.0 0.00 0.00 0.00 88 1004.7
20240302033117 45 113 1.0 3.0 0.00 0.00 0.00 88 1004.8
20240302032117 46 135 1.0 2.0 0.00 0.00 0.00 87 1004.7
20240302031117 46 135 3.0 4.0 0.00 0.00 0.00 87 1004.8
20240302030117 46 135 2.0 4.0 0.00 0.00 0.00 87 1004.8
20240302025117 46 158 1.0 2.0 0.00 0.00 0.00 87 1004.9
20240302024137 46 158 1.0 2.0 0.00 0.00 0.00 87 1004.9
20240302023117 46 0.0 0.0 0.00 0.00 0.00 87 1004.9
20240302022117 46 0.0 1.0 0.00 0.00 0.00 86 1005.0
20240302021157 46 113 2.0 3.0 0.00 0.00 0.00 86 1005.1
20240302020117 46 113 2.0 4.0 0.00 0.00 0.00 86 1005.2
20240302015117 46 135 1.0 2.0 0.00 0.00 0.00 85 1005.3
20240302014116 47 135 1.0 2.0 0.00 0.00 0.00 85 1005.4
20240302013117 47 0.0 0.0 0.00 0.00 0.00 84 1005.6
20240302012117 47 135 1.0 2.0 0.00 0.00 0.00 84 1005.6
20240302011117 47 0.0 1.0 0.00 0.00 0.00 85 1005.5
20240302010116 47 0.0 0.0 0.00 0.00 0.00 84 1005.5
20240302005117 47 0.0 0.0 0.00 0.00 0.00 84 1005.4
20240302004117 47 135 2.0 2.0 0.00 0.00 0.00 83 1005.4
20240302003117 48 135 1.0 1.0 0.00 0.00 0.00 82 1005.4
20240302002117 48 113 1.0 2.0 0.00 0.00 0.00 82 1005.3
20240302001117 48 135 2.0 3.0 0.00 0.00 0.00 82 1005.3
20240302000116 48 225 2.0 4.0 0.00 0.00 0.00 82 1005.4
20240301235117 48 225 1.0 2.0 0.00 0.00 0.00 83 1005.3
20240301234117 48 113 1.0 2.0 0.00 0.00 0.00 83 1005.4
20240301233117 47 203 1.0 2.0 0.00 0.00 0.00 83 1005.5
20240301232117 48 135 1.0 3.0 0.00 0.00 0.00 83 1005.6
20240301231117 48 135 2.0 3.0 0.00 0.00 0.00 83 1005.6
20240301230137 48 158 1.0 2.0 0.00 0.00 0.00 82 1005.7
20240301225117 48 158 2.0 3.0 0.00 0.00 0.00 82 1005.7
20240301224117 48 180 1.0 2.0 0.00 0.00 0.00 83 1005.7
20240301223117 48 225 2.0 3.0 0.00 0.00 0.00 83 1005.8
20240301222117 48 135 3.0 5.0 0.00 0.00 0.00 83 1005.8
20240301221117 48 135 3.0 5.0 0.00 0.00 0.00 83 1005.8
20240301220117 48 135 1.0 3.0 0.00 0.00 0.00 84 1005.9
20240301215117 48 158 2.0 3.0 0.00 0.00 0.00 84 1006.0
20240301214117 48 135 4.0 5.0 0.00 0.00 0.00 85 1006.0
20240301213117 47 135 3.0 4.0 0.00 0.00 0.00 86 1006.2
20240301212117 48 135 3.0 4.0 0.00 0.00 0.00 85 1006.2
20240301211157 47 135 3.0 4.0 0.00 0.00 0.00 85 1006.2
20240301210117 48 135 2.0 3.0 0.00 0.00 0.00 85 1006.2
20240301205117 48 135 1.0 1.0 0.00 0.00 0.00 84 1006.2
20240301204117 48 113 1.0 2.0 0.00 0.00 0.00 84 1006.1
20240301203117 48 135 1.0 2.0 0.00 0.00 0.00 83 1006.1
20240301202117 48 0.0 1.0 0.00 0.00 0.00 82 1006.1
20240301201117 48 113 1.0 2.0 0.00 0.00 0.00 82 1006.2
20240301200137 48 135 1.0 2.0 0.00 0.00 0.00 82 1006.2
20240301195117 48 135 1.0 2.0 0.00 0.00 0.00 81 1006.1
20240301194117 49 0.0 1.0 0.00 0.00 0.00 81 1006.2
20240301193117 49 158 2.0 3.0 0.00 0.00 0.00 81 1006.3
20240301192117 49 158 1.0 2.0 0.00 0.00 0.00 81 1006.2
20240301191117 49 135 3.0 5.0 0.00 0.00 0.00 80 1006.2
20240301190117 49 135 2.0 4.0 0.00 0.00 0.00 80 1006.2
20240301185117 49 135 3.0 5.0 0.00 0.00 0.00 80 1006.3
20240301184117 49 158 1.0 2.0 0.00 0.00 0.00 79 1006.1
20240301183117 49 135 1.0 3.0 0.00 0.00 0.00 79 1006.3
20240301182117 49 203 2.0 3.0 0.00 0.00 0.00 79 1006.2
20240301181117 49 135 2.0 3.0 0.00 0.00 0.00 79 1006.2
20240301180117 50 135 2.0 2.0 0.00 0.00 0.00 79 1006.3
20240301175137 50 158 1.0 1.0 0.00 0.00 0.00 79 1006.3
20240301174117 50 225 1.0 3.0 0.00 0.00 0.00 78 1006.3
20240301173117 51 158 2.0 3.0 0.00 0.00 0.00 77 1006.2
20240301172117 51 203 3.0 4.0 0.00 0.00 0.00 77 1006.0
20240301171216 51 158 2.0 4.0 0.00 0.00 0.00 76 1006.1
20240301170256 52 135 2.0 4.0 0.00 0.00 0.00 75 1006.2
20240301165216 52 203 2.0 3.0 0.00 0.00 0.00 75 1006.1
20240301164216 52 158 4.0 6.0 0.00 0.00 0.00 74 1006.1
20240301163256 53 203 2.0 4.0 0.00 0.00 0.00 74 1005.8
20240301162216 53 135 2.0 4.0 0.00 0.00 0.00 74 1005.6
20240301161216 53 135 2.0 3.0 0.00 0.00 0.00 72 1005.7
20240301160236 53 158 3.0 5.0 0.00 0.00 0.00 72 1005.7